![]() |
EMODnet Physics ERDDAP
Easier access to scientific data |
log in|
Brought to you by EMODnet Physics |
| Dataset Title: | NDBC - Collection of dew point temperature (DEWT) TimeSeries - IN SITU MultiPointTimeSeriesObservation
|
| Institution: | NDBC (Dataset ID: TS_DEWT_NDBC) |
| Information: | Summary
| License
| FGDC
| ISO 19115
| Metadata
| Background
| Subset
| Data Access Form
| Make a graph
|
| Name | Last modified | Size | Description | |
|---|---|---|---|---|
| Parent Directory | - | - | ||
| NKXA2_TS_DEWT_012018.nc | 24-Dec-2024 08:17 | 429340 | ||
| NKXA2_TS_DEWT_012019.nc | 24-Dec-2024 08:21 | 428911 | ||
| NKXA2_TS_DEWT_012020.nc | 24-Dec-2024 08:25 | 450088 | ||
| NKXA2_TS_DEWT_012021.nc | 24-Dec-2024 08:29 | 450117 | ||
| NKXA2_TS_DEWT_012022.nc | 24-Dec-2024 08:32 | 450325 | ||
| NKXA2_TS_DEWT_012023.nc | 16-Jan-2026 04:37 | 449958 | ||
| NKXA2_TS_DEWT_012024.nc | 16-Jan-2026 04:43 | 429347 | ||
| NKXA2_TS_DEWT_012025.nc | 16-Jan-2026 04:49 | 450010 | ||
| NKXA2_TS_DEWT_012026.nc | 02-Feb-2026 16:01 | 450504 | ||
| NKXA2_TS_DEWT_022018.nc | 24-Dec-2024 08:18 | 448757 | ||
| NKXA2_TS_DEWT_022019.nc | 24-Dec-2024 08:22 | 449501 | ||
| NKXA2_TS_DEWT_022020.nc | 24-Dec-2024 08:25 | 447744 | ||
| NKXA2_TS_DEWT_022021.nc | 24-Dec-2024 08:29 | 429544 | ||
| NKXA2_TS_DEWT_022022.nc | 24-Dec-2024 08:32 | 429544 | ||
| NKXA2_TS_DEWT_022023.nc | 16-Jan-2026 04:37 | 429548 | ||
| NKXA2_TS_DEWT_022024.nc | 16-Jan-2026 04:43 | 450245 | ||
| NKXA2_TS_DEWT_022025.nc | 16-Jan-2026 04:49 | 449771 | ||
| NKXA2_TS_DEWT_022026.nc | 01-Mar-2026 14:31 | 449757 | ||
| NKXA2_TS_DEWT_032018.nc | 24-Dec-2024 08:18 | 449751 | ||
| NKXA2_TS_DEWT_032019.nc | 24-Dec-2024 08:22 | 449744 | ||
| NKXA2_TS_DEWT_032020.nc | 24-Dec-2024 08:26 | 429548 | ||
| NKXA2_TS_DEWT_032021.nc | 24-Dec-2024 08:29 | 449520 | ||
| NKXA2_TS_DEWT_032022.nc | 24-Dec-2024 08:33 | 449088 | ||
| NKXA2_TS_DEWT_032023.nc | 16-Jan-2026 04:38 | 450775 | ||
| NKXA2_TS_DEWT_032024.nc | 16-Jan-2026 04:44 | 450558 | ||
| NKXA2_TS_DEWT_032025.nc | 16-Jan-2026 04:50 | 450106 | ||
| NKXA2_TS_DEWT_032026.nc | 26-Mar-2026 04:48 | 418868 | ||
| NKXA2_TS_DEWT_042018.nc | 24-Dec-2024 08:18 | 450440 | ||
| NKXA2_TS_DEWT_042019.nc | 24-Dec-2024 08:22 | 429545 | ||
| NKXA2_TS_DEWT_042020.nc | 24-Dec-2024 08:26 | 429623 | ||
| NKXA2_TS_DEWT_042021.nc | 24-Dec-2024 08:29 | 449074 | ||
| NKXA2_TS_DEWT_042022.nc | 24-Dec-2024 08:33 | 450732 | ||
| NKXA2_TS_DEWT_042023.nc | 16-Jan-2026 04:38 | 429617 | ||
| NKXA2_TS_DEWT_042024.nc | 16-Jan-2026 04:44 | 429658 | ||
| NKXA2_TS_DEWT_042025.nc | 16-Jan-2026 04:50 | 428168 | ||
| NKXA2_TS_DEWT_052018.nc | 24-Dec-2024 08:19 | 429670 | ||
| NKXA2_TS_DEWT_052019.nc | 24-Dec-2024 08:23 | 429664 | ||
| NKXA2_TS_DEWT_052020.nc | 24-Dec-2024 08:26 | 448871 | ||
| NKXA2_TS_DEWT_052021.nc | 24-Dec-2024 08:30 | 429672 | ||
| NKXA2_TS_DEWT_052022.nc | 24-Dec-2024 08:33 | 429663 | ||
| NKXA2_TS_DEWT_052023.nc | 16-Jan-2026 04:39 | 429480 | ||
| NKXA2_TS_DEWT_052024.nc | 16-Jan-2026 04:45 | 431383 | ||
| NKXA2_TS_DEWT_052025.nc | 16-Jan-2026 04:51 | 450984 | ||
| NKXA2_TS_DEWT_062018.nc | 24-Dec-2024 08:19 | 450931 | ||
| NKXA2_TS_DEWT_062019.nc | 24-Dec-2024 08:23 | 446933 | ||
| NKXA2_TS_DEWT_062020.nc | 24-Dec-2024 08:27 | 439413 | ||
| NKXA2_TS_DEWT_062021.nc | 24-Dec-2024 08:30 | 429346 | ||
| NKXA2_TS_DEWT_062023.nc | 16-Jan-2026 04:39 | 450837 | ||
| NKXA2_TS_DEWT_062024.nc | 16-Jan-2026 04:45 | 430707 | ||
| NKXA2_TS_DEWT_062025.nc | 16-Jan-2026 04:51 | 447537 | ||
| NKXA2_TS_DEWT_072018.nc | 24-Dec-2024 08:19 | 450424 | ||
| NKXA2_TS_DEWT_072019.nc | 24-Dec-2024 08:23 | 450559 | ||
| NKXA2_TS_DEWT_072020.nc | 24-Dec-2024 08:27 | 429889 | ||
| NKXA2_TS_DEWT_072021.nc | 24-Dec-2024 08:30 | 429887 | ||
| NKXA2_TS_DEWT_072022.nc | 16-Jan-2026 04:33 | 429887 | ||
| NKXA2_TS_DEWT_072023.nc | 16-Jan-2026 04:40 | 450810 | ||
| NKXA2_TS_DEWT_072024.nc | 16-Jan-2026 04:46 | 449720 | ||
| NKXA2_TS_DEWT_072025.nc | 16-Jan-2026 04:52 | 451135 | ||
| NKXA2_TS_DEWT_082018.nc | 24-Dec-2024 08:20 | 451189 | ||
| NKXA2_TS_DEWT_082019.nc | 24-Dec-2024 08:24 | 429887 | ||
| NKXA2_TS_DEWT_082020.nc | 24-Dec-2024 08:27 | 429870 | ||
| NKXA2_TS_DEWT_082021.nc | 24-Dec-2024 08:30 | 450835 | ||
| NKXA2_TS_DEWT_082022.nc | 16-Jan-2026 04:34 | 450907 | ||
| NKXA2_TS_DEWT_082023.nc | 16-Jan-2026 04:41 | 450966 | ||
| NKXA2_TS_DEWT_082024.nc | 16-Jan-2026 04:46 | 450389 | ||
| NKXA2_TS_DEWT_082025.nc | 16-Jan-2026 04:53 | 451207 | ||
| NKXA2_TS_DEWT_092018.nc | 24-Dec-2024 08:20 | 450921 | ||
| NKXA2_TS_DEWT_092019.nc | 24-Dec-2024 08:24 | 449835 | ||
| NKXA2_TS_DEWT_092020.nc | 24-Dec-2024 08:27 | 429894 | ||
| NKXA2_TS_DEWT_092021.nc | 24-Dec-2024 08:31 | 429886 | ||
| NKXA2_TS_DEWT_092022.nc | 16-Jan-2026 04:34 | 450649 | ||
| NKXA2_TS_DEWT_092023.nc | 16-Jan-2026 04:41 | 450151 | ||
| NKXA2_TS_DEWT_092024.nc | 16-Jan-2026 04:47 | 429319 | ||
| NKXA2_TS_DEWT_092025.nc | 16-Jan-2026 04:53 | 429323 | ||
| NKXA2_TS_DEWT_102018.nc | 24-Dec-2024 08:21 | 428059 | ||
| NKXA2_TS_DEWT_102019.nc | 24-Dec-2024 08:24 | 429339 | ||
| NKXA2_TS_DEWT_102020.nc | 24-Dec-2024 08:28 | 429300 | ||
| NKXA2_TS_DEWT_102021.nc | 24-Dec-2024 08:31 | 429311 | ||
| NKXA2_TS_DEWT_102022.nc | 16-Jan-2026 04:35 | 429291 | ||
| NKXA2_TS_DEWT_102023.nc | 16-Jan-2026 04:42 | 429330 | ||
| NKXA2_TS_DEWT_102024.nc | 16-Jan-2026 04:47 | 429334 | ||
| NKXA2_TS_DEWT_102025.nc | 16-Jan-2026 04:54 | 429338 | ||
| NKXA2_TS_DEWT_112018.nc | 24-Dec-2024 08:21 | 449954 | ||
| NKXA2_TS_DEWT_112019.nc | 24-Dec-2024 08:24 | 449413 | ||
| NKXA2_TS_DEWT_112020.nc | 24-Dec-2024 08:28 | 434478 | ||
| NKXA2_TS_DEWT_112021.nc | 24-Dec-2024 08:31 | 450170 | ||
| NKXA2_TS_DEWT_112022.nc | 16-Jan-2026 04:35 | 429344 | ||
| NKXA2_TS_DEWT_112023.nc | 16-Jan-2026 04:42 | 449019 | ||
| NKXA2_TS_DEWT_112024.nc | 16-Jan-2026 04:48 | 427382 | ||
| NKXA2_TS_DEWT_112025.nc | 16-Jan-2026 04:54 | 448688 | ||
| NKXA2_TS_DEWT_122017.nc | 24-Dec-2024 08:17 | 448340 | ||
| NKXA2_TS_DEWT_122018.nc | 24-Dec-2024 08:21 | 449610 | ||
| NKXA2_TS_DEWT_122019.nc | 24-Dec-2024 08:25 | 429542 | ||
| NKXA2_TS_DEWT_122020.nc | 24-Dec-2024 08:28 | 429548 | ||
| NKXA2_TS_DEWT_122021.nc | 24-Dec-2024 08:32 | 429545 | ||
| NKXA2_TS_DEWT_122022.nc | 16-Jan-2026 04:36 | 449590 | ||
| NKXA2_TS_DEWT_122023.nc | 16-Jan-2026 04:42 | 449757 | ||
| NKXA2_TS_DEWT_122024.nc | 16-Jan-2026 04:48 | 450357 | ||
| NKXA2_TS_DEWT_122025.nc | 16-Jan-2026 04:55 | 449020 | ||